GW6963 Weather Reports


time (UTC)temp
C
wind
direction
speed
KPH
gust
KPH
rain 1hr
cm
rain 24hr
cm
rain mn
cm
humidity
%
barometer
mb
20260508004500 12 301 0.0 0.0 0.00 0.03 0.03 38 1006.5
20260508003957 12 301 0.0 0.0 0.00 0.03 0.03 37 1006.6
20260508003454 12 301 0.0 0.0 0.00 0.03 0.03 36 1006.6
20260508002951 13 301 0.0 0.0 0.00 0.03 0.03 35 1006.6
20260508002447 13 301 0.0 0.0 0.00 0.03 0.03 35 1006.4
20260508001943 13 284 0.0 0.0 0.00 0.03 0.03 35 1006.4
20260508001440 13 36 0.0 0.0 0.00 0.03 0.03 35 1006.3
20260508000937 13 294 0.0 0.0 0.00 0.03 0.03 35 1006.2
20260508000434 13 294 0.0 0.0 0.00 0.03 0.03 35 1006.2
20260507235930 13 278 0.0 0.0 0.00 0.03 0.03 34 1006.3
20260507235427 13 278 1.6 1.6 0.00 0.03 0.03 33 1006.2
20260507234924 14 285 3.2 4.8 0.00 0.03 0.03 32 1006.1
20260507234420 14 291 0.0 0.0 0.00 0.03 0.03 32 1005.9
20260507233917 14 265 1.6 3.2 0.00 0.03 0.03 32 1005.9
20260507233414 14 295 0.0 3.2 0.00 0.03 0.03 31 1005.9
20260507232913 15 283 0.0 3.2 0.00 0.03 0.03 32 1005.9
20260507232409 15 283 0.0 3.2 0.00 0.03 0.03 31 1005.8
20260507231906 15 313 1.6 3.2 0.00 0.03 0.03 31 1005.8
20260507231402 15 301 3.2 4.8 0.00 0.03 0.03 30 1005.7
20260507230859 15 314 0.0 4.8 0.00 0.03 0.03 30 1005.7
20260507230356 15 316 1.6 1.6 0.00 0.03 0.03 30 1005.7
20260507225856 15 316 1.6 3.2 0.00 0.03 0.03 30 1005.7
20260507225353 16 296 3.2 3.2 0.00 0.03 0.03 27 1005.5
20260507224848 16 279 3.2 3.2 0.00 0.03 0.03 29 1005.5
20260507224345 16 277 3.2 3.2 0.00 0.03 0.03 28 1005.5
20260507223841 16 294 3.2 4.8 0.00 0.03 0.03 28 1005.4
20260507223338 16 264 0.0 3.2 0.00 0.03 0.03 28 1005.3
20260507222835 16 303 0.0 1.6 0.00 0.03 0.03 29 1005.3
20260507222331 16 333 1.6 3.2 0.00 0.03 0.03 30 1005.4
20260507221828 16 289 3.2 3.2 0.00 0.03 0.03 28 1005.3
20260507221325 16 272 3.2 4.8 0.00 0.03 0.03 28 1005.4
20260507220821 16 5 0.0 1.6 0.00 0.03 0.03 28 1005.2
20260507220320 16 12 1.6 1.6 0.00 0.03 0.03 28 1005.2
20260507215815 16 302 3.2 4.8 0.00 0.03 0.03 29 1005.3
20260507215313 16 288 1.6 6.4 0.00 0.03 0.03 28 1005.1
20260507214810 17 295 3.2 4.8 0.00 0.03 0.03 27 1005.1
20260507214308 17 295 1.6 4.8 0.00 0.03 0.03 28 1005.1
20260507213808 17 328 0.0 0.0 0.00 0.03 0.03 27 1005.0
20260507213305 17 256 4.8 9.7 0.00 0.03 0.03 27 1005.0
20260507212802 17 325 0.0 4.8 0.00 0.03 0.03 27 1005.0
20260507212258 17 337 3.2 12.9 0.00 0.03 0.03 26 1004.8
20260507211754 17 254 3.2 6.4 0.00 0.03 0.03 27 1004.9
20260507211251 17 263 3.2 11.3 0.00 0.03 0.03 26 1004.9
20260507210748 17 334 1.6 3.2 0.00 0.03 0.03 27 1004.9
20260507210245 18 228 4.8 14.5 0.00 0.03 0.03 26 1004.8
20260507205741 18 292 4.8 6.4 0.00 0.03 0.03 29 1004.8
20260507205238 18 303 3.2 6.4 0.00 0.03 0.03 26 1004.9
20260507204734 19 317 1.6 1.6 0.00 0.03 0.03 28 1004.8
20260507204233 20 351 1.6 4.8 0.00 0.03 0.03 26 1004.8
20260507203730 19 265 0.0 1.6 0.00 0.03 0.03 26 1004.7
20260507203227 19 272 1.6 9.7 0.00 0.03 0.03 27 1004.8
20260507202723 19 291 3.2 4.8 0.00 0.03 0.03 26 1004.8
20260507202219 19 326 1.6 3.2 0.00 0.03 0.03 25 1004.8
20260507201714 19 300 1.6 4.8 0.00 0.03 0.03 27 1004.8
20260507201212 20 2 0.0 3.2 0.00 0.03 0.03 25 1004.7
20260507200708 19 268 0.0 3.2 0.00 0.03 0.03 25 1004.8
20260507200204 18 331 1.6 4.8 0.00 0.03 0.03 25 1004.8
20260507195700 18 276 6.4 11.3 0.00 0.03 0.03 25 1005.0
20260507195157 19 307 1.6 4.8 0.00 0.03 0.03 25 1004.9
20260507194654 18 280 0.0 4.8 0.00 0.03 0.03 24 1005.2
20260507194150 18 30 1.6 3.2 0.00 0.03 0.03 26 1005.0
20260507193647 18 300 1.6 4.8 0.00 0.03 0.03 25 1005.2
20260507193144 20 36 4.8 6.4 0.00 0.03 0.03 24 1005.1
20260507192640 20 297 3.2 4.8 0.00 0.03 0.03 26 1005.1
20260507192138 19 289 4.8 4.8 0.00 0.03 0.03 24 1005.1
20260507191633 18 313 0.0 4.8 0.00 0.03 0.03 27 1005.3
20260507191130 18 66 1.6 3.2 0.00 0.03 0.03 25 1005.2
20260507190627 17 121 3.2 6.4 0.00 0.03 0.03 25 1005.3
20260507190126 18 43 0.0 9.7 0.00 0.03 0.03 26 1005.3
20260507185624 18 279 4.8 6.4 0.00 0.03 0.03 26 1005.4
20260507185120 18 277 4.8 9.7 0.00 0.03 0.03 25 1005.6
20260507184618 18 299 3.2 11.3 0.00 0.03 0.03 25 1005.5
20260507184116 18 39 3.2 6.4 0.00 0.03 0.03 26 1005.5
20260507183612 18 304 3.2 4.8 0.00 0.03 0.03 26 1005.5
20260507183109 18 28 3.2 6.4 0.00 0.03 0.03 24 1005.4
20260507182605 17 261 4.8 6.4 0.00 0.03 0.03 26 1005.6
20260507182101 17 267 0.0 4.8 0.00 0.03 0.03 25 1005.4
20260507181558 18 280 0.0 4.8 0.00 0.03 0.03 26 1005.7
20260507181054 17 289 3.2 4.8 0.00 0.03 0.03 31 1005.7
20260507180551 17 281 6.4 6.4 0.00 0.03 0.03 32 1005.8
20260507180048 17 285 4.8 9.7 0.00 0.03 0.03 27 1005.8
20260507175544 17 312 4.8 6.4 0.00 0.03 0.03 27 1005.8
20260507175042 17 294 3.2 4.8 0.00 0.03 0.03 28 1005.9
20260507174538 17 294 3.2 6.4 0.00 0.03 0.03 31 1005.9
20260507174037 17 296 0.0 1.6 0.00 0.03 0.03 31 1005.7
20260507173533 17 292 1.6 4.8 0.00 0.03 0.03 32 1005.6
20260507173031 17 2 0.0 1.6 0.00 0.03 0.03 33 1005.7
20260507172526 16 330 0.0 1.6 0.00 0.03 0.03 32 1005.7
20260507172023 16 298 3.2 11.3 0.00 0.03 0.03 33 1006.0
20260507171519 16 294 8.0 11.3 0.00 0.03 0.03 33 1005.8
20260507171016 16 329 0.0 4.8 0.00 0.03 0.03 36 1005.9
20260507170513 16 15 3.2 4.8 0.00 0.03 0.03 37 1006.0
20260507170010 16 290 3.2 6.4 0.00 0.03 0.03 37 1006.0
20260507165505 17 11 3.2 4.8 0.00 0.03 0.03 38 1006.1
20260507165002 16 305 0.0 4.8 0.00 0.03 0.03 41 1006.3
20260507164458 16 290 4.8 6.4 0.00 0.03 0.03 44 1006.3
20260507163955 16 305 0.0 0.0 0.00 0.03 0.03 42 1006.3
20260507163453 16 286 1.6 4.8 0.00 0.03 0.03 46 1006.1
20260507162950 15 306 1.6 4.8 0.00 0.03 0.03 47 1006.4
20260507162445 15 309 1.6 6.4 0.00 0.03 0.03 43 1006.3
20260507161942 16 299 3.2 4.8 0.00 0.03 0.03 44 1006.3
20260507161438 15 305 1.6 6.4 0.00 0.03 0.03 46 1006.5
20260507160935 16 17 1.6 6.4 0.00 0.03 0.03 45 1006.5
20260507160431 16 301 0.0 1.6 0.00 0.03 0.03 48 1006.3
20260507155927 15 262 0.0 3.2 0.00 0.03 0.03 45 1006.6
20260507155423 15 305 0.0 0.0 0.00 0.03 0.03 53 1006.7
20260507154921 15 348 1.6 3.2 0.00 0.03 0.03 51 1006.6
20260507154417 15 296 3.2 4.8 0.00 0.03 0.03 49 1006.6
20260507153915 15 309 3.2 3.2 0.00 0.03 0.03 50 1006.4
20260507153411 15 285 1.6 6.4 0.00 0.03 0.03 50 1006.7
20260507152907 15 242 3.2 3.2 0.00 0.03 0.03 52 1006.7
20260507152404 15 22 0.0 4.8 0.00 0.03 0.03 50 1006.7
20260507151900 15 346 0.0 3.2 0.00 0.03 0.03 53 1006.9
20260507151356 14 284 4.8 4.8 0.00 0.03 0.03 52 1006.9
20260507150853 14 288 3.2 4.8 0.00 0.03 0.03 51 1007.0
20260507150350 14 282 1.6 1.6 0.00 0.03 0.03 52 1007.1
20260507145846 14 294 0.0 4.8 0.00 0.03 0.03 52 1007.3
20260507145342 14 298 3.2 3.2 0.00 0.03 0.03 51 1007.2
20260507144839 15 296 1.6 4.8 0.00 0.03 0.03 49 1007.4
20260507144337 15 325 3.2 4.8 0.00 0.03 0.03 49 1007.4
20260507143834 15 292 1.6 1.6 0.00 0.03 0.03 49 1007.5
20260507143331 15 299 3.2 3.2 0.00 0.03 0.03 48 1007.4
20260507142827 15 47 1.6 4.8 0.00 0.03 0.03 48 1007.3
20260507142323 15 313 1.6 3.2 0.00 0.03 0.03 49 1007.3
20260507141820 15 326 1.6 3.2 0.00 0.03 0.03 52 1007.4
20260507141317 14 296 3.2 4.8 0.00 0.03 0.03 47 1007.4
20260507140813 13 307 3.2 4.8 0.00 0.03 0.03 47 1007.3
20260507140310 13 312 1.6 4.8 0.00 0.03 0.03 50 1007.3
20260507135808 13 341 0.0 3.2 0.00 0.03 0.03 49 1007.4
20260507135306 13 289 1.6 4.8 0.00 0.03 0.03 50 1007.3
20260507134801 13 290 0.0 4.8 0.00 0.03 0.03 52 1007.2
20260507134258 13 296 4.8 6.4 0.00 0.03 0.03 52 1007.1
20260507133753 13 350 1.6 3.2 0.00 0.03 0.03 50 1007.3
20260507133250 12 23 1.6 4.8 0.00 0.03 0.03 53 1007.2
20260507132748 12 321 1.6 4.8 0.00 0.03 0.03 54 1007.5
20260507132244 12 290 0.0 3.2 0.00 0.03 0.03 57 1007.5
20260507131741 12 305 0.0 1.6 0.00 0.03 0.03 57 1007.6
20260507131238 12 287 1.6 4.8 0.00 0.03 0.03 57 1007.4
20260507130735 12 279 1.6 4.8 0.00 0.03 0.03 60 1007.5
20260507130233 12 298 1.6 3.2 0.00 0.03 0.03 62 1007.7
20260507125731 12 317 1.6 3.2 0.00 0.03 0.03 62 1007.8
20260507125228 12 9 1.6 4.8 0.00 0.03 0.03 67 1007.7
20260507124725 11 185 0.0 0.0 0.00 0.03 0.03 68 1007.8
20260507124222 11 318 0.0 11.3 0.00 0.03 0.03 70 1007.6
20260507123720 11 292 1.6 4.8 0.00 0.03 0.03 70 1007.7
20260507123217 11 295 0.0 3.2 0.00 0.03 0.03 71 1007.7
20260507122712 11 287 1.6 4.8 0.00 0.03 0.03 71 1007.6
20260507122209 11 272 4.8 4.8 0.00 0.03 0.03 74 1007.8
20260507121704 10 281 3.2 3.2 0.00 0.03 0.03 75 1007.7
20260507121200 10 294 0.0 4.8 0.00 0.03 0.03 74 1007.7
20260507120657 10 295 3.2 3.2 0.00 0.03 0.03 76 1007.5
20260507120154 10 258 3.2 3.2 0.00 0.03 0.03 77 1007.7
20260507115650 10 283 1.6 4.8 0.00 0.03 0.03 76 1007.7
20260507115145 10 282 1.6 1.6 0.00 0.03 0.03 79 1007.8
20260507114642 10 296 0.0 3.2 0.00 0.03 0.03 78 1007.6
20260507114139 10 315 0.0 0.0 0.00 0.03 0.03 80 1007.5
20260507113637 10 320 0.0 0.0 0.00 0.03 0.03 81 1007.7
20260507113133 10 288 0.0 0.0 0.00 0.03 0.03 81 1007.7
20260507112631 10 324 0.0 0.0 0.00 0.03 0.03 82 1007.8
20260507112127 10 334 0.0 0.0 0.00 0.03 0.03 82 1007.7
20260507111625 10 305 0.0 0.0 0.00 0.03 0.03 84 1007.5
20260507111122 9 305 0.0 0.0 0.00 0.03 0.03 83 1007.4
20260507110618 9 305 3.2 3.2 0.00 0.03 0.03 84 1007.3
20260507110115 9 330 0.0 1.6 0.00 0.03 0.03 85 1007.6
20260507105612 9 330 0.0 0.0 0.00 0.03 0.03 85 1007.6
20260507105107 9 330 0.0 0.0 0.00 0.03 0.03 86 1007.6
20260507104606 9 330 0.0 0.0 0.00 0.03 0.03 85 1007.8
20260507104101 9 330 0.0 0.0 0.00 0.03 0.03 85 1007.7
20260507103557 9 330 0.0 0.0 0.00 0.03 0.03 85 1007.1
20260507103054 9 331 0.0 1.6 0.00 0.03 0.03 85 1006.9
20260507102550 9 331 0.0 0.0 0.00 0.03 0.03 86 1006.9
20260507102047 9 330 1.6 1.6 0.00 0.03 0.03 86 1006.8
20260507101542 9 331 0.0 0.0 0.00 0.03 0.03 87 1006.8
20260507101039 9 287 0.0 0.0 0.00 0.03 0.03 87 1007.0
20260507100536 9 285 0.0 0.0 0.00 0.03 0.03 87 1007.1
20260507100034 9 282 0.0 0.0 0.00 0.03 0.03 87 1006.8
20260507095532 9 277 0.0 0.0 0.00 0.03 0.03 88 1006.5
20260507095028 9 286 0.0 0.0 0.00 0.03 0.03 88 1006.7
20260507094525 9 284 0.0 3.2 0.00 0.03 0.03 87 1006.8
20260507094022 9 336 0.0 1.6 0.00 0.03 0.03 88 1007.0
20260507093519 9 336 0.0 0.0 0.00 0.03 0.03 87 1007.2
20260507093018 9 336 0.0 1.6 0.00 0.03 0.03 86 1007.2
20260507092514 10 336 0.0 1.6 0.00 0.03 0.03 85 1006.9
20260507092011 10 314 0.0 0.0 0.00 0.03 0.03 86 1007.0
20260507091507 10 299 0.0 0.0 0.00 0.03 0.03 86 1007.0
20260507091003 10 298 0.0 1.6 0.00 0.03 0.03 86 1007.3
20260507090459 10 298 0.0 1.6 0.00 0.03 0.03 86 1007.3
20260507085956 10 298 0.0 1.6 0.00 0.03 0.03 87 1007.2
20260507085453 10 309 0.0 0.0 0.00 0.03 0.03 88 1007.0
20260507084950 10 309 0.0 0.0 0.00 0.03 0.03 88 1007.2
20260507084447 10 309 0.0 1.6 0.00 0.03 0.03 88 1006.8
20260507083944 10 307 0.0 1.6 0.00 0.03 0.03 89 1006.7
20260507083440 10 311 0.0 0.0 0.00 0.03 0.03 90 1007.0
20260507082936 10 311 1.6 1.6 0.00 0.03 0.03 89 1006.9
20260507082432 10 318 0.0 0.0 0.00 0.03 0.03 90 1006.6
20260507081929 10 318 0.0 0.0 0.00 0.03 0.03 90 1006.5
20260507081426 10 318 0.0 0.0 0.00 0.03 0.03 90 1006.3
20260507080923 10 307 0.0 0.0 0.00 0.03 0.03 90 1006.4
20260507080419 11 307 0.0 0.0 0.13 0.03 0.03 90 1006.4
20260507075914 11 309 0.0 0.0 0.13 0.03 0.03 89 1006.8
20260507075411 11 309 0.0 1.6 0.00 0.00 0.00 88 1007.0
20260507074907 11 308 0.0 3.2 0.00 0.00 0.00 87 1006.6
20260507074404 11 333 0.0 0.0 0.00 0.00 0.00 85 1006.4
20260507073902 11 300 0.0 1.6 0.00 0.00 0.00 85 1007.0
20260507073358 11 300 0.0 1.6 0.00 0.00 0.00 84 1006.7
20260507072855 11 300 0.0 1.6 0.00 0.00 0.00 84 1006.2
20260507072352 11 300 0.0 1.6 0.00 0.00 0.00 84 1006.0
20260507071850 11 300 0.0 0.0 0.00 0.00 0.00 83 1006.0
20260507071347 11 300 0.0 0.0 0.00 0.00 0.00 83 1006.2
20260507070843 11 300 0.0 0.0 0.00 0.00 0.00 82 1006.2
20260507070341 11 300 0.0 1.6 0.00 0.00 0.00 82 1006.4
20260507065837 11 300 0.0 0.0 0.00 0.00 0.00 82 1005.9
20260507065334 11 300 0.0 0.0 0.00 0.00 0.00 81 1005.9
20260507064831 11 292 0.0 0.0 0.00 0.00 0.00 81 1006.0
20260507064330 11 292 1.6 4.8 0.00 0.00 0.00 81 1006.1
20260507063827 11 355 1.6 1.6 0.00 0.00 0.00 82 1006.1
20260507063324 11 8 0.0 1.6 0.00 0.00 0.00 82 1005.9
20260507062820 11 333 0.0 0.0 0.00 0.00 0.00 82 1005.9
20260507062317 12 294 0.0 4.8 0.00 0.00 0.00 82 1006.0
20260507061816 12 302 4.8 4.8 0.00 0.00 0.00 83 1005.8
20260507061313 12 296 1.6 4.8 0.00 0.00 0.00 82 1006.0
20260507060811 12 318 0.0 3.2 0.00 0.00 0.00 83 1006.2
20260507060308 12 56 1.6 4.8 0.00 0.00 0.00 84 1006.0
20260507055804 12 297 0.0 0.0 0.00 0.00 0.00 84 1006.0
20260507055259 12 261 3.2 3.2 0.00 0.00 0.00 86 1006.2
20260507054756 12 297 0.0 1.6 0.00 0.00 0.00 87 1006.2
20260507054253 12 23 0.0 1.6 0.00 0.00 0.00 89 1006.2
20260507053750 12 317 1.6 3.2 0.00 0.00 0.00 88 1006.4
20260507053248 12 13 0.0 1.6 0.00 0.00 0.00 88 1006.3
20260507052746 12 290 1.6 6.4 0.00 0.00 0.00 89 1005.9
20260507052242 13 297 1.6 3.2 0.00 0.00 0.00 89 1006.1
20260507051741 13 321 3.2 3.2 0.00 0.00 0.00 89 1006.2
20260507051237 13 342 1.6 3.2 0.00 0.00 0.00 89 1005.9
20260507050733 13 289 3.2 4.8 0.00 0.00 0.00 89 1005.9
20260507050231 13 3 1.6 1.6 0.00 0.00 0.00 89 1006.0
20260507045728 13 302 0.0 4.8 0.00 0.00 0.00 90 1006.2
20260507045224 13 292 0.0 0.0 0.00 0.00 0.00 91 1006.2
20260507044721 13 297 0.0 0.0 0.00 0.00 0.00 91 1006.3
20260507044217 13 292 1.6 3.2 0.00 0.00 0.00 91 1006.2
20260507043714 13 290 1.6 4.8 0.00 0.00 0.00 91 1005.9
20260507043211 13 298 1.6 3.2 0.00 0.00 0.00 92 1005.8
20260507042707 14 340 0.0 1.6 0.00 0.00 0.00 92 1006.1
20260507042202 14 46 0.0 3.2 0.00 0.00 0.00 93 1006.0
20260507041700 15 306 0.0 0.0 0.00 0.00 0.00 94 1005.9
20260507041156 15 299 1.6 3.2 0.00 0.00 0.00 95 1006.0
20260507040653 15 258 0.0 0.0 0.00 0.00 0.00 95 1006.0
20260507040149 15 258 0.0 0.0 0.00 0.00 0.00 95 1006.1
20260507035645 15 258 0.0 0.0 0.00 0.15 0.15 95 1005.9
20260507035141 15 289 0.0 0.0 0.00 0.15 0.15 95 1005.9
20260507034638 15 288 0.0 0.0 0.00 0.15 0.15 95 1005.6
20260507034136 15 288 0.0 1.6 0.00 0.15 0.15 95 1005.6
20260507033634 15 245 0.0 0.0 0.00 0.15 0.15 95 1005.7
20260507033131 15 310 1.6 3.2 0.00 0.15 0.15 94 1005.8
20260507032629 15 312 0.0 1.6 0.18 0.15 0.15 94 1005.8
20260507032124 15 313 0.0 0.0 0.00 0.13 0.13 94 1005.8
20260507031621 15 267 1.6 1.6 0.00 0.13 0.13 93 1005.5
20260507031118 15 276 0.0 1.6 0.00 0.13 0.13 93 1005.4
20260507030615 15 277 0.0 0.0 0.00 0.13 0.13 93 1005.4
20260507030113 15 277 0.0 0.0 0.00 0.13 0.13 93 1005.1
20260507025609 15 277 0.0 0.0 0.00 0.13 0.13 93 1005.1
20260507025106 15 277 0.0 0.0 0.00 0.13 0.13 93 1005.3
20260507024604 15 297 0.0 1.6 0.00 0.13 0.13 93 1005.3
20260507024101 15 281 3.2 3.2 0.00 0.13 0.13 93 1005.3
20260507023556 15 275 0.0 4.8 0.00 0.13 0.13 93 1005.4
20260507023054 15 283 0.0 1.6 0.00 0.13 0.13 93 1005.4
20260507022551 15 152 0.0 1.6 0.00 0.13 0.13 93 1005.5
20260507022046 15 152 0.0 0.0 0.00 0.13 0.13 93 1005.4
20260507021543 15 159 1.6 3.2 0.00 0.13 0.13 93 1005.3
20260507021039 15 303 3.2 6.4 0.00 0.13 0.13 93 1005.5
20260507020537 15 203 1.6 1.6 0.00 0.13 0.13 93 1005.5
20260507020033 15 218 1.6 1.6 0.00 0.13 0.13 93 1005.3
20260507015532 15 199 1.6 3.2 0.00 0.13 0.13 93 1005.3
20260507015029 15 199 0.0 3.2 0.00 0.13 0.13 93 1005.4
20260507014525 15 307 0.0 3.2 0.00 0.13 0.13 93 1005.4
20260507014021 15 128 1.6 9.7 0.00 0.13 0.13 93 1005.6
20260507013518 15 174 0.0 1.6 0.00 0.13 0.13 93 1005.3
20260507013015 15 174 1.6 1.6 0.00 0.13 0.13 93 1005.6
20260507012512 15 271 0.0 0.0 0.00 0.13 0.13 93 1005.5
20260507012008 15 147 3.2 6.4 0.00 0.13 0.13 93 1005.5
20260507011506 15 133 1.6 1.6 0.00 0.13 0.13 93 1005.5
20260507011001 15 188 1.6 1.6 0.00 0.13 0.13 93 1005.5
20260507010456 15 178 1.6 4.8 0.00 0.13 0.13 93 1005.6
20260507005953 15 176 0.0 1.6 0.00 0.13 0.13 93 1005.5
20260507005451 15 172 1.6 1.6 0.00 0.13 0.13 93 1005.8
20260507004947 15 144 0.0 3.2 0.00 0.13 0.13 93 1005.7